COSMOS 2559 (707K)

Last updated on Sat Dec 13 2025 00:03:19 GMT+0000 (Coordinated Universal Time)

1 54031U 22130A 25346.16230866 -.00000058 00000+0 00000+0 0 9995 2 54031 64.3826 321.1614 0011814 192.4425 167.5288 2.13101343 24702
UTC large
Height (km)
Speed (km/s)
/
Latitude / Longitude
Inclination (degrees)
Orbital Period (minutes)
Azimuth
Elevation
Range (km)
Doppler Factor

Next 0 passes for location: London (51.5072 / 0.1276)

Sorry there are no passes over London.